Regional Weather Roundup
Issued by NWS Midland/Odessa, TX

Home | Current Version | Previous Version | Text Only | Print | Product List | Glossary On
Versions: 1 2 3 4 5 6 7 8 9 10 11 12 13 14 15 16 17 18 19 20 21 22 23 24 25 26 27 28 29 30 31 32 33 34 35 36 37 38 39 40 41 42 43 44 45 46 47 48 49 50
000
ASUS44 KMAF 300610
RWRMAF
MIDLAND AREA WEATHER ROUNDUP
NATIONAL WEATHER SERVICE MIDLAND TX
100 AM CDT SAT AUG 30 2014

...IN SOUTHWEST TEXAS AND SOUTHEAST NEW MEXICO...

CITY           SKY/WX    TMP DP  RH WIND       PRES   REMARKS
ALPINE         FAIR      73  58  61 SW7       30.14R
ANDREWS        FAIR      75  64  69 SE8       30.04F
ARTESIA        NOT AVBL
BIG SPRING     FAIR      76  71  82 E3        30.03F
CARLSBAD       MOCLDY    78  53  41 SW3       30.01R
DRYDEN           N/A     82  62  50 NE7       29.94S
FORT STOCKTON  FAIR      78  64  61 SE8       30.00S
GUAD PASS      MOCLDY    73  48  41 NE18      30.17R
HOBBS          FAIR      75  63  64 SE10      30.07S
MARFA          FAIR      64  46  52 E6G18     30.14R
MIDLAND AIRPK  FAIR      78  65  64 SE5       30.02F
MIDLAND INTL   FAIR      77  64  64 E7        30.01F
ODESSA         FAIR      77  63  61 E8        30.03S
PECOS          FAIR      79  63  57 E13       29.96F
PRESIDIO       FAIR      85  58  40 MISG      29.95R
SEMINOLE       FAIR      74  65  72 SE6       30.06S
SNYDER         FAIR      73  66  78 SE7       30.01F
WINK           FAIR      80  64  58 E12       29.98S
$$
...OTHER STATIONS IN TEXAS...

CITY           SKY/WX    TMP DP  RH WIND       PRES   REMARKS
ABILENE        FAIR      75  69  81 S8        29.96F
AMARILLO       FAIR      70  61  73 S10       30.06S
AUSTIN         FAIR      74  71  91 CALM      29.93R
BROWNSVILLE    MOCLDY    82  79  90 SE5       29.87S
CORPUS CHRISTI FAIR      79  76  90 S6        29.88R
DALLAS FTW     FAIR      81  71  71 S8        29.92S
DEL RIO        FAIR      89  67  47 SE15      29.87S
EL PASO        PTCLDY    78  50  37 CALM      30.01S
HOUSTON INT    MOCLDY    75  73  94 E5        29.91F
LUBBOCK        FAIR      72  66  81 S10       30.03F
SAN ANGELO     FAIR      74  66  76 CALM      29.97S
SAN ANTONIO    MOCLDY    80  72  76 SE13      29.93S
WACO           FAIR      77  70  79 SE7       29.93R
WICHITA FALLS  NOT AVBL
$$
...OTHER LOCATIONS IN NEW MEXICO...

CITY           SKY/WX    TMP DP  RH WIND       PRES   REMARKS
ALAMAGORDO     CLEAR     68  45  42 E7        30.04F
ALBUQUERQUE    CLEAR     73  41  31 CALM      30.14S
CANNON AFB     CLEAR     67  45  44 SW6       30.10R
CLOVIS           N/A     63  45  51 SE3       30.13S
HOLLOMAN AFB   CLEAR     70  46  42 CALM      30.02F
ROSWELL        CLEAR     72  55  55 E3        30.05R
RUIDOSO        CLEAR     57  48  72 SW8       30.29S
SANTA FE       CLEAR     60  43  53 CALM      30.21R
TRUTH OR CONSE PTCLDY    70  49  47 NW6       30.08S
TUCUMCARI      PTCLDY    66  40  38 W3        30.06R
$$



USA.gov is the U.S. government's official web portal to all federal, state and local government web resources and services.